| time (UTC) | temp F | wind direction | speed knots | gust knots | rain 1hr in | rain 24hr in | rain mn in | humidity % | barometer mb |
| 20260510093022 | 34 | 22 | 2.6 | 2.6 | 0.00 | 0.00 | 0.00 | 71 | 1021.0 |
| 20260510092519 | 34 | 25 | 2.6 | 2.6 | 0.00 | 0.00 | 0.00 | 70 | 1020.9 |
| 20260510092018 | 34 | 2 | 2.6 | 2.6 | 0.00 | 0.00 | 0.00 | 70 | 1021.1 |
| 20260510091516 | 33 | 18 | 0.9 | 1.7 | 0.00 | 0.00 | 0.00 | 71 | 1021.0 |
| 20260510091011 | 33 | 11 | 0.9 | 0.9 | 0.00 | 0.00 | 0.00 | 70 | 1021.1 |
| 20260510090509 | 33 | 357 | 0.9 | 0.9 | 0.00 | 0.00 | 0.00 | 71 | 1020.9 |
| 20260510090004 | 33 | 331 | 0.9 | 0.9 | 0.00 | 0.00 | 0.00 | 71 | 1020.7 |
| 20260510085459 | 34 | 332 | 0.9 | 0.9 | 0.00 | 0.00 | 0.00 | 70 | 1020.8 |
| 20260510084955 | 34 | 13 | 0.0 | 0.9 | 0.00 | 0.00 | 0.00 | 69 | 1020.6 |
| 20260510084452 | 35 | 34 | 0.0 | 0.0 | 0.00 | 0.00 | 0.00 | 68 | 1020.7 |
| 20260510083949 | 35 | 13 | 0.9 | 1.7 | 0.00 | 0.00 | 0.00 | 67 | 1020.7 |
| 20260510083445 | 35 | 2 | 2.6 | 2.6 | 0.00 | 0.00 | 0.00 | 67 | 1020.3 |
| 20260510082941 | 36 | 357 | 1.7 | 1.7 | 0.00 | 0.00 | 0.00 | 66 | 1020.3 |
| 20260510082439 | 37 | 356 | 0.9 | 1.7 | 0.00 | 0.00 | 0.00 | 65 | 1020.3 |
| 20260510081938 | 37 | 6 | 2.6 | 2.6 | 0.00 | 0.00 | 0.00 | 65 | 1020.4 |
| 20260510081434 | 37 | 1 | 1.7 | 1.7 | 0.00 | 0.00 | 0.00 | 64 | 1020.4 |
| 20260510080930 | 37 | 16 | 2.6 | 2.6 | 0.00 | 0.00 | 0.00 | 64 | 1020.1 |
| 20260510080428 | 37 | 19 | 1.7 | 1.7 | 0.00 | 0.00 | 0.00 | 63 | 1020.3 |
| 20260510075925 | 38 | 359 | 2.6 | 2.6 | 0.00 | 0.00 | 0.00 | 63 | 1020.3 |
| 20260510075424 | 37 | 6 | 4.3 | 5.2 | 0.00 | 0.00 | 0.00 | 63 | 1020.1 |
| 20260510074921 | 37 | 355 | 2.6 | 4.3 | 0.00 | 0.00 | 0.00 | 63 | 1020.1 |
| 20260510074418 | 37 | 354 | 1.7 | 1.7 | 0.00 | 0.00 | 0.00 | 63 | 1019.9 |
| 20260510073914 | 37 | 22 | 1.7 | 1.7 | 0.00 | 0.00 | 0.00 | 63 | 1020.3 |
| 20260510073409 | 38 | 10 | 1.7 | 1.7 | 0.00 | 0.00 | 0.00 | 62 | 1019.9 |
| 20260510072906 | 38 | 26 | 0.9 | 0.9 | 0.00 | 0.00 | 0.00 | 62 | 1020.0 |
| 20260510072403 | 38 | 27 | 0.9 | 1.7 | 0.00 | 0.00 | 0.00 | 61 | 1020.0 |
| 20260510071858 | 38 | 25 | 0.9 | 1.7 | 0.00 | 0.00 | 0.00 | 61 | 1019.7 |
| 20260510071355 | 39 | 17 | 0.9 | 1.7 | 0.00 | 0.00 | 0.00 | 61 | 1019.9 |
| 20260510070854 | 38 | 24 | 1.7 | 1.7 | 0.00 | 0.00 | 0.00 | 61 | 1019.8 |
| 20260510070351 | 38 | 28 | 0.9 | 1.7 | 0.00 | 0.00 | 0.00 | 61 | 1019.7 |
| 20260510065851 | 37 | 26 | 0.9 | 0.9 | 0.00 | 0.00 | 0.00 | 62 | 1019.7 |
| 20260510065348 | 37 | 33 | 0.0 | 0.0 | 0.00 | 0.00 | 0.00 | 63 | 1019.5 |
| 20260510064844 | 36 | 33 | 0.0 | 0.0 | 0.00 | 0.00 | 0.00 | 63 | 1019.6 |
| 20260510064342 | 37 | 33 | 0.0 | 0.0 | 0.00 | 0.00 | 0.00 | 61 | 1019.6 |
| 20260510063838 | 38 | 33 | 0.0 | 0.0 | 0.00 | 0.00 | 0.00 | 60 | 1019.5 |
| 20260510063335 | 38 | 33 | 0.0 | 0.0 | 0.00 | 0.00 | 0.00 | 59 | 1019.4 |
| 20260510062831 | 39 | 33 | 0.0 | 0.9 | 0.00 | 0.00 | 0.00 | 59 | 1019.6 |
| 20260510062327 | 39 | 29 | 0.0 | 0.9 | 0.00 | 0.00 | 0.00 | 58 | 1019.5 |
| 20260510061822 | 39 | 27 | 0.0 | 0.9 | 0.00 | 0.00 | 0.00 | 57 | 1019.5 |
| 20260510061320 | 39 | 34 | 0.9 | 0.9 | 0.00 | 0.00 | 0.00 | 58 | 1019.6 |
| 20260510060815 | 40 | 2 | 0.9 | 0.9 | 0.00 | 0.00 | 0.00 | 56 | 1019.3 |
| 20260510060313 | 41 | 306 | 0.9 | 0.9 | 0.00 | 0.00 | 0.00 | 55 | 1019.3 |
| 20260510055809 | 41 | 340 | 0.9 | 0.9 | 0.00 | 0.00 | 0.00 | 55 | 1019.3 |
| 20260510055308 | 42 | 316 | 0.9 | 1.7 | 0.00 | 0.00 | 0.00 | 53 | 1019.2 |
| 20260510054807 | 42 | 8 | 0.9 | 0.9 | 0.00 | 0.00 | 0.00 | 53 | 1019.1 |
| 20260510054304 | 43 | 354 | 1.7 | 1.7 | 0.00 | 0.00 | 0.00 | 52 | 1019.0 |
| 20260510053804 | 43 | 342 | 2.6 | 2.6 | 0.00 | 0.00 | 0.00 | 50 | 1019.0 |
| 20260510053254 | 44 | 355 | 3.5 | 4.3 | 0.00 | 0.00 | 0.00 | 50 | 1019.1 |
| 20260510052750 | 43 | 342 | 3.5 | 4.3 | 0.00 | 0.00 | 0.00 | 51 | 1018.7 |
| 20260510052246 | 43 | 9 | 0.9 | 1.7 | 0.00 | 0.00 | 0.00 | 52 | 1018.6 |
| 20260510051742 | 42 | 348 | 1.7 | 1.7 | 0.00 | 0.00 | 0.00 | 52 | 1018.6 |
| 20260510051239 | 42 | 353 | 1.7 | 1.7 | 0.00 | 0.00 | 0.00 | 53 | 1018.6 |
| 20260510050736 | 41 | 2 | 1.7 | 1.7 | 0.00 | 0.00 | 0.00 | 54 | 1018.3 |
| 20260510050233 | 41 | 99 | 0.0 | 0.0 | 0.00 | 0.00 | 0.00 | 54 | 1018.2 |
| 20260510045730 | 42 | 152 | 0.9 | 0.9 | 0.00 | 0.03 | 0.03 | 53 | 1018.2 |
| 20260510045226 | 43 | 177 | 0.9 | 0.9 | 0.00 | 0.03 | 0.03 | 52 | 1018.0 |
| 20260510044723 | 42 | 168 | 0.9 | 0.9 | 0.00 | 0.03 | 0.03 | 52 | 1018.0 |
| 20260510044221 | 41 | 68 | 0.0 | 0.0 | 0.00 | 0.03 | 0.03 | 54 | 1017.9 |
| 20260510043716 | 42 | 70 | 0.0 | 0.0 | 0.00 | 0.03 | 0.03 | 53 | 1017.9 |
| 20260510043213 | 42 | 68 | 0.0 | 0.0 | 0.00 | 0.03 | 0.03 | 52 | 1017.8 |
| 20260510042710 | 41 | 68 | 0.0 | 0.0 | 0.00 | 0.03 | 0.03 | 53 | 1017.6 |
| 20260510042206 | 43 | 68 | 0.0 | 0.0 | 0.00 | 0.03 | 0.03 | 51 | 1017.6 |
| 20260510041703 | 44 | 56 | 0.0 | 0.0 | 0.00 | 0.03 | 0.03 | 50 | 1017.5 |
| 20260510041201 | 43 | 56 | 0.0 | 0.0 | 0.00 | 0.03 | 0.03 | 51 | 1017.7 |
| 20260510040657 | 42 | 59 | 0.9 | 0.9 | 0.00 | 0.03 | 0.03 | 53 | 1017.6 |
| 20260510040154 | 41 | 208 | 0.0 | 0.0 | 0.00 | 0.03 | 0.03 | 54 | 1017.7 |
| 20260510035650 | 42 | 208 | 0.0 | 0.0 | 0.00 | 0.03 | 0.03 | 53 | 1017.5 |
| 20260510035145 | 44 | 210 | 0.9 | 0.9 | 0.00 | 0.03 | 0.03 | 51 | 1017.5 |
| 20260510034642 | 46 | 50 | 0.0 | 0.0 | 0.00 | 0.03 | 0.03 | 47 | 1017.7 |
| 20260510034139 | 46 | 52 | 0.9 | 0.9 | 0.00 | 0.03 | 0.03 | 47 | 1017.7 |
| 20260510033635 | 47 | 47 | 0.9 | 0.9 | 0.00 | 0.03 | 0.03 | 46 | 1017.4 |
| 20260510033133 | 47 | 43 | 0.9 | 0.9 | 0.00 | 0.03 | 0.03 | 46 | 1017.5 |
| 20260510032630 | 47 | 47 | 0.9 | 0.9 | 0.00 | 0.03 | 0.03 | 46 | 1017.4 |
| 20260510032125 | 47 | 32 | 1.7 | 1.7 | 0.00 | 0.03 | 0.03 | 45 | 1017.3 |
| 20260510031620 | 47 | 37 | 0.9 | 0.9 | 0.00 | 0.03 | 0.03 | 45 | 1017.4 |
| 20260510031117 | 48 | 27 | 1.7 | 1.7 | 0.00 | 0.03 | 0.03 | 45 | 1017.3 |
| 20260510030611 | 48 | 25 | 1.7 | 1.7 | 0.00 | 0.03 | 0.03 | 44 | 1017.1 |
| 20260510030109 | 48 | 23 | 2.6 | 2.6 | 0.00 | 0.03 | 0.03 | 44 | 1017.3 |
| 20260510025606 | 48 | 37 | 1.7 | 1.7 | 0.00 | 0.03 | 0.03 | 44 | 1017.3 |
| 20260510025103 | 48 | 359 | 1.7 | 1.7 | 0.00 | 0.03 | 0.03 | 44 | 1017.4 |
| 20260510024600 | 48 | 44 | 0.9 | 0.9 | 0.00 | 0.03 | 0.03 | 44 | 1017.2 |
| 20260510024056 | 48 | 23 | 1.7 | 1.7 | 0.00 | 0.03 | 0.03 | 45 | 1017.2 |
| 20260510023547 | 48 | 24 | 1.7 | 1.7 | 0.00 | 0.03 | 0.03 | 46 | 1017.0 |
| 20260510023045 | 48 | 35 | 1.7 | 1.7 | 0.00 | 0.03 | 0.03 | 46 | 1017.1 |
| 20260510022543 | 48 | 37 | 0.9 | 0.9 | 0.00 | 0.03 | 0.03 | 45 | 1017.0 |
| 20260510022038 | 48 | 29 | 0.0 | 0.9 | 0.00 | 0.03 | 0.03 | 45 | 1017.0 |
| 20260510021535 | 49 | 26 | 1.7 | 1.7 | 0.00 | 0.03 | 0.03 | 45 | 1016.7 |
| 20260510021032 | 50 | 21 | 1.7 | 1.7 | 0.00 | 0.03 | 0.03 | 44 | 1016.4 |
| 20260510020527 | 50 | 21 | 0.9 | 0.9 | 0.00 | 0.03 | 0.03 | 43 | 1016.7 |
| 20260510020023 | 51 | 350 | 1.7 | 1.7 | 0.00 | 0.03 | 0.03 | 41 | 1016.6 |
| 20260510015518 | 52 | 17 | 1.7 | 1.7 | 0.00 | 0.03 | 0.03 | 42 | 1016.3 |
| 20260510015014 | 52 | 355 | 1.7 | 1.7 | 0.00 | 0.03 | 0.03 | 40 | 1016.4 |
| 20260510014511 | 53 | 322 | 2.6 | 2.6 | 0.00 | 0.03 | 0.03 | 40 | 1016.3 |
| 20260510014008 | 54 | 316 | 1.7 | 1.7 | 0.00 | 0.03 | 0.03 | 39 | 1016.2 |
| 20260510013502 | 55 | 321 | 2.6 | 2.6 | 0.00 | 0.03 | 0.03 | 38 | 1016.3 |
| 20260510012959 | 55 | 334 | 4.3 | 5.2 | 0.00 | 0.03 | 0.03 | 36 | 1016.2 |
| 20260510012453 | 56 | 316 | 4.3 | 5.2 | 0.00 | 0.03 | 0.03 | 35 | 1016.2 |
| 20260510011949 | 56 | 353 | 5.2 | 7.0 | 0.00 | 0.03 | 0.03 | 34 | 1016.2 |
| 20260510011444 | 57 | 320 | 5.2 | 7.0 | 0.00 | 0.03 | 0.03 | 34 | 1016.2 |
| 20260510010940 | 57 | 320 | 4.3 | 6.1 | 0.00 | 0.03 | 0.03 | 33 | 1016.2 |
| 20260510010437 | 57 | 321 | 4.3 | 6.1 | 0.00 | 0.03 | 0.03 | 33 | 1016.0 |
| 20260510005933 | 58 | 351 | 4.3 | 5.2 | 0.00 | 0.03 | 0.03 | 34 | 1016.1 |
| 20260510005424 | 58 | 334 | 5.2 | 6.1 | 0.00 | 0.03 | 0.03 | 33 | 1016.0 |
| 20260510004922 | 58 | 306 | 6.1 | 7.8 | 0.00 | 0.03 | 0.03 | 33 | 1015.7 |
| 20260510004419 | 58 | 308 | 7.8 | 8.7 | 0.00 | 0.03 | 0.03 | 32 | 1015.8 |
| 20260510003917 | 59 | 299 | 7.0 | 8.7 | 0.00 | 0.03 | 0.03 | 32 | 1015.8 |
| 20260510003414 | 59 | 331 | 7.0 | 8.7 | 0.00 | 0.03 | 0.03 | 32 | 1015.9 |
| 20260510002913 | 59 | 322 | 7.0 | 7.8 | 0.00 | 0.03 | 0.03 | 33 | 1015.7 |
| 20260510002410 | 59 | 313 | 8.7 | 8.7 | 0.00 | 0.03 | 0.03 | 32 | 1015.9 |
| 20260510001906 | 59 | 303 | 8.7 | 11.3 | 0.00 | 0.03 | 0.03 | 33 | 1015.7 |
| 20260510001404 | 59 | 301 | 7.8 | 9.6 | 0.00 | 0.03 | 0.03 | 33 | 1015.9 |
| 20260510000901 | 59 | 324 | 5.2 | 7.0 | 0.00 | 0.03 | 0.03 | 33 | 1015.7 |
| 20260510000358 | 59 | 359 | 7.0 | 8.7 | 0.00 | 0.03 | 0.03 | 32 | 1015.7 |
| 20260509235854 | 59 | 352 | 6.1 | 7.8 | 0.00 | 0.03 | 0.03 | 33 | 1015.9 |
| 20260509235350 | 59 | 323 | 6.1 | 7.0 | 0.00 | 0.03 | 0.03 | 33 | 1015.6 |
| 20260509234847 | 59 | 321 | 7.8 | 11.3 | 0.00 | 0.03 | 0.03 | 33 | 1015.9 |
| 20260509234343 | 60 | 332 | 5.2 | 6.1 | 0.00 | 0.03 | 0.03 | 35 | 1015.7 |
| 20260509233842 | 60 | 285 | 7.8 | 9.6 | 0.00 | 0.03 | 0.03 | 33 | 1015.6 |
| 20260509233334 | 60 | 283 | 7.8 | 8.7 | 0.00 | 0.03 | 0.03 | 34 | 1015.6 |
| 20260509232829 | 59 | 289 | 6.1 | 7.0 | 0.00 | 0.03 | 0.03 | 36 | 1015.7 |
| 20260509232327 | 60 | 277 | 7.0 | 7.8 | 0.00 | 0.03 | 0.03 | 36 | 1015.5 |
| 20260509231823 | 60 | 266 | 10.4 | 12.2 | 0.00 | 0.03 | 0.03 | 35 | 1015.5 |
| 20260509231320 | 60 | 311 | 5.2 | 6.1 | 0.00 | 0.03 | 0.03 | 36 | 1015.7 |
| 20260509230818 | 60 | 307 | 6.1 | 7.8 | 0.00 | 0.03 | 0.03 | 34 | 1015.6 |
| 20260509230315 | 60 | 305 | 7.8 | 8.7 | 0.00 | 0.03 | 0.03 | 34 | 1015.6 |
| 20260509225809 | 60 | 316 | 7.0 | 8.7 | 0.00 | 0.03 | 0.03 | 35 | 1015.5 |
| 20260509225307 | 59 | 320 | 6.1 | 7.0 | 0.00 | 0.03 | 0.03 | 35 | 1015.8 |
| 20260509224803 | 60 | 313 | 8.7 | 12.2 | 0.00 | 0.03 | 0.03 | 34 | 1015.5 |
| 20260509224259 | 59 | 347 | 3.5 | 4.3 | 0.00 | 0.03 | 0.03 | 34 | 1015.3 |
| 20260509223756 | 59 | 327 | 8.7 | 11.3 | 0.00 | 0.03 | 0.03 | 34 | 1015.6 |
| 20260509223253 | 59 | 342 | 11.3 | 13.0 | 0.00 | 0.03 | 0.03 | 33 | 1015.5 |
| 20260509222749 | 59 | 320 | 8.7 | 9.6 | 0.00 | 0.03 | 0.03 | 34 | 1015.6 |
| 20260509222245 | 60 | 315 | 7.8 | 8.7 | 0.00 | 0.03 | 0.03 | 34 | 1015.3 |
| 20260509221740 | 60 | 343 | 6.1 | 7.8 | 0.00 | 0.03 | 0.03 | 35 | 1015.7 |
| 20260509221237 | 59 | 298 | 7.8 | 8.7 | 0.00 | 0.03 | 0.03 | 35 | 1015.7 |
| 20260509220733 | 59 | 349 | 7.0 | 8.7 | 0.00 | 0.03 | 0.03 | 35 | 1015.6 |
| 20260509220230 | 59 | 338 | 7.0 | 8.7 | 0.00 | 0.03 | 0.03 | 35 | 1015.8 |
| 20260509215725 | 59 | 336 | 8.7 | 12.2 | 0.00 | 0.03 | 0.03 | 36 | 1015.5 |
| 20260509215221 | 59 | 324 | 7.8 | 8.7 | 0.00 | 0.03 | 0.03 | 36 | 1015.8 |
| 20260509214719 | 59 | 328 | 4.3 | 6.1 | 0.00 | 0.03 | 0.03 | 37 | 1015.6 |
| 20260509214216 | 58 | 327 | 7.8 | 9.6 | 0.00 | 0.03 | 0.03 | 37 | 1015.8 |
| 20260509213713 | 58 | 300 | 4.3 | 5.2 | 0.00 | 0.03 | 0.03 | 37 | 1015.7 |
| 20260509213208 | 59 | 301 | 7.0 | 7.8 | 0.00 | 0.03 | 0.03 | 37 | 1015.8 |
| 20260509212706 | 58 | 0 | 7.0 | 8.7 | 0.00 | 0.03 | 0.03 | 38 | 1015.7 |
| 20260509212202 | 59 | 354 | 10.4 | 13.9 | 0.00 | 0.03 | 0.03 | 39 | 1015.9 |
| 20260509211658 | 58 | 338 | 3.5 | 4.3 | 0.00 | 0.03 | 0.03 | 41 | 1015.7 |
| 20260509211155 | 59 | 298 | 7.8 | 8.7 | 0.00 | 0.03 | 0.03 | 41 | 1016.0 |
| 20260509210652 | 59 | 280 | 7.8 | 9.6 | 0.00 | 0.03 | 0.03 | 39 | 1016.0 |
| 20260509210144 | 58 | 323 | 7.0 | 7.8 | 0.00 | 0.03 | 0.03 | 39 | 1015.8 |
| 20260509205639 | 57 | 345 | 11.3 | 12.2 | 0.00 | 0.03 | 0.03 | 39 | 1015.8 |
| 20260509205138 | 57 | 336 | 9.6 | 11.3 | 0.00 | 0.03 | 0.03 | 40 | 1015.8 |
| 20260509204629 | 57 | 311 | 7.8 | 11.3 | 0.00 | 0.03 | 0.03 | 41 | 1016.0 |
| 20260509204126 | 58 | 306 | 7.0 | 8.7 | 0.00 | 0.03 | 0.03 | 42 | 1015.9 |
| 20260509203622 | 57 | 324 | 11.3 | 13.9 | 0.00 | 0.03 | 0.03 | 41 | 1016.0 |
| 20260509203121 | 57 | 291 | 10.4 | 11.3 | 0.00 | 0.03 | 0.03 | 41 | 1016.0 |
| 20260509202620 | 57 | 286 | 5.2 | 6.1 | 0.00 | 0.03 | 0.03 | 44 | 1016.3 |
| 20260509202115 | 56 | 276 | 4.3 | 5.2 | 0.00 | 0.03 | 0.03 | 42 | 1016.2 |
| 20260509201610 | 56 | 336 | 13.0 | 14.8 | 0.00 | 0.03 | 0.03 | 40 | 1015.7 |
| 20260509201108 | 56 | 328 | 8.7 | 9.6 | 0.00 | 0.03 | 0.03 | 40 | 1016.1 |
| 20260509200603 | 56 | 280 | 9.6 | 13.0 | 0.00 | 0.03 | 0.03 | 41 | 1016.1 |
| 20260509200059 | 57 | 317 | 11.3 | 13.0 | 0.00 | 0.03 | 0.03 | 41 | 1016.2 |
| 20260509195555 | 56 | 18 | 4.3 | 5.2 | 0.00 | 0.03 | 0.03 | 44 | 1016.0 |
| 20260509195050 | 57 | 340 | 10.4 | 11.3 | 0.00 | 0.03 | 0.03 | 42 | 1016.3 |
| 20260509194549 | 56 | 280 | 8.7 | 11.3 | 0.00 | 0.03 | 0.03 | 43 | 1016.2 |
| 20260509194047 | 56 | 303 | 7.8 | 9.6 | 0.00 | 0.03 | 0.03 | 45 | 1015.9 |
| 20260509193542 | 55 | 279 | 3.5 | 4.3 | 0.00 | 0.03 | 0.03 | 44 | 1015.9 |
| 20260509193039 | 56 | 306 | 12.2 | 18.2 | 0.00 | 0.03 | 0.03 | 41 | 1016.1 |
| 20260509192536 | 57 | 14 | 6.1 | 7.8 | 0.00 | 0.03 | 0.03 | 47 | 1016.2 |
| 20260509192031 | 56 | 342 | 8.7 | 9.6 | 0.00 | 0.03 | 0.03 | 45 | 1016.0 |
| 20260509191525 | 55 | 320 | 2.6 | 2.6 | 0.00 | 0.03 | 0.03 | 44 | 1016.1 |
| 20260509191021 | 55 | 267 | 6.1 | 7.0 | 0.00 | 0.03 | 0.03 | 49 | 1016.0 |
| 20260509190518 | 55 | 348 | 7.8 | 8.7 | 0.00 | 0.03 | 0.03 | 46 | 1016.1 |
| 20260509190016 | 55 | 350 | 3.5 | 5.2 | 0.00 | 0.03 | 0.03 | 46 | 1015.9 |
| 20260509185513 | 54 | 302 | 8.7 | 9.6 | 0.00 | 0.03 | 0.03 | 47 | 1016.0 |
| 20260509185009 | 55 | 5 | 3.5 | 5.2 | 0.00 | 0.03 | 0.03 | 42 | 1016.1 |
| 20260509184508 | 55 | 302 | 6.1 | 7.0 | 0.00 | 0.03 | 0.03 | 48 | 1016.2 |
| 20260509184004 | 55 | 296 | 6.1 | 7.0 | 0.00 | 0.03 | 0.03 | 47 | 1016.3 |
| 20260509183500 | 54 | 323 | 2.6 | 4.3 | 0.00 | 0.03 | 0.03 | 46 | 1016.3 |
| 20260509182956 | 54 | 325 | 7.0 | 9.6 | 0.00 | 0.03 | 0.03 | 48 | 1016.0 |
| 20260509182452 | 54 | 226 | 2.6 | 2.6 | 0.00 | 0.03 | 0.03 | 51 | 1016.2 |
| 20260509181949 | 54 | 223 | 4.3 | 6.1 | 0.00 | 0.03 | 0.03 | 49 | 1016.1 |
| 20260509181447 | 53 | 4 | 5.2 | 6.1 | 0.00 | 0.03 | 0.03 | 50 | 1016.2 |
| 20260509180945 | 53 | 17 | 3.5 | 4.3 | 0.00 | 0.03 | 0.03 | 46 | 1016.2 |
| 20260509180440 | 53 | 7 | 6.1 | 8.7 | 0.00 | 0.03 | 0.03 | 50 | 1016.2 |
| 20260509175936 | 53 | 301 | 7.0 | 7.8 | 0.00 | 0.03 | 0.03 | 47 | 1016.2 |
| 20260509175427 | 53 | 305 | 6.1 | 8.7 | 0.00 | 0.03 | 0.03 | 48 | 1016.3 |
| 20260509174923 | 53 | 281 | 4.3 | 6.1 | 0.00 | 0.03 | 0.03 | 48 | 1016.3 |
| 20260509174420 | 52 | 345 | 1.7 | 1.7 | 0.00 | 0.03 | 0.03 | 48 | 1016.1 |
| 20260509173915 | 51 | 304 | 6.1 | 7.0 | 0.00 | 0.03 | 0.03 | 51 | 1016.2 |
| 20260509173410 | 53 | 278 | 9.6 | 11.3 | 0.00 | 0.03 | 0.03 | 50 | 1016.2 |
| 20260509172906 | 52 | 324 | 4.3 | 5.2 | 0.00 | 0.03 | 0.03 | 50 | 1016.2 |
| 20260509172403 | 52 | 309 | 7.8 | 9.6 | 0.00 | 0.03 | 0.03 | 52 | 1016.1 |
| 20260509171859 | 51 | 312 | 5.2 | 6.1 | 0.00 | 0.03 | 0.03 | 51 | 1016.1 |
| 20260509171355 | 52 | 21 | 3.5 | 4.3 | 0.00 | 0.03 | 0.03 | 52 | 1016.1 |
| 20260509170852 | 51 | 336 | 6.1 | 7.8 | 0.00 | 0.03 | 0.03 | 53 | 1016.1 |
| 20260509170347 | 51 | 320 | 5.2 | 7.0 | 0.00 | 0.03 | 0.03 | 55 | 1016.3 |
| 20260509165841 | 51 | 313 | 4.3 | 5.2 | 0.00 | 0.03 | 0.03 | 54 | 1016.1 |
| 20260509165331 | 51 | 346 | 5.2 | 6.1 | 0.00 | 0.03 | 0.03 | 53 | 1016.2 |
| 20260509164827 | 51 | 253 | 6.1 | 8.7 | 0.00 | 0.03 | 0.03 | 52 | 1016.1 |
| 20260509164324 | 50 | 342 | 7.0 | 7.8 | 0.00 | 0.03 | 0.03 | 51 | 1016.0 |
| 20260509163820 | 50 | 298 | 4.3 | 5.2 | 0.00 | 0.03 | 0.03 | 56 | 1015.9 |
| 20260509163316 | 50 | 332 | 4.3 | 5.2 | 0.00 | 0.03 | 0.03 | 56 | 1015.8 |
| 20260509162815 | 50 | 350 | 5.2 | 6.1 | 0.00 | 0.03 | 0.03 | 53 | 1015.9 |
| 20260509162309 | 50 | 325 | 3.5 | 4.3 | 0.00 | 0.03 | 0.03 | 53 | 1016.0 |
| 20260509161805 | 50 | 296 | 6.1 | 7.0 | 0.00 | 0.03 | 0.03 | 53 | 1016.0 |
| 20260509161301 | 50 | 286 | 5.2 | 6.1 | 0.00 | 0.03 | 0.03 | 52 | 1015.8 |
| 20260509160756 | 50 | 290 | 4.3 | 6.1 | 0.00 | 0.03 | 0.03 | 55 | 1015.8 |
| 20260509160253 | 49 | 330 | 4.3 | 5.2 | 0.00 | 0.03 | 0.03 | 56 | 1015.9 |
| 20260509155748 | 49 | 282 | 2.6 | 4.3 | 0.00 | 0.03 | 0.03 | 53 | 1016.0 |
| 20260509155245 | 49 | 38 | 2.6 | 2.6 | 0.00 | 0.03 | 0.03 | 52 | 1015.8 |
| 20260509154741 | 49 | 42 | 4.3 | 4.3 | 0.00 | 0.03 | 0.03 | 57 | 1015.9 |
| 20260509154238 | 48 | 14 | 1.7 | 1.7 | 0.00 | 0.03 | 0.03 | 55 | 1015.9 |
| 20260509153736 | 48 | 0 | 3.5 | 4.3 | 0.00 | 0.03 | 0.03 | 56 | 1015.9 |
| 20260509153231 | 49 | 36 | 2.6 | 4.3 | 0.00 | 0.03 | 0.03 | 56 | 1015.6 |
| 20260509152728 | 48 | 4 | 1.7 | 1.7 | 0.00 | 0.03 | 0.03 | 56 | 1015.7 |
| 20260509152219 | 48 | 352 | 6.1 | 7.0 | 0.00 | 0.03 | 0.03 | 55 | 1015.4 |
| 20260509151716 | 47 | 14 | 2.6 | 2.6 | 0.00 | 0.03 | 0.03 | 54 | 1015.5 |
| 20260509151213 | 47 | 27 | 2.6 | 2.6 | 0.00 | 0.03 | 0.03 | 54 | 1015.8 |
| 20260509150710 | 47 | 54 | 0.9 | 0.9 | 0.00 | 0.03 | 0.03 | 58 | 1015.4 |
| 20260509150209 | 47 | 28 | 3.5 | 4.3 | 0.00 | 0.03 | 0.03 | 61 | 1015.5 |
| 20260509145704 | 46 | 42 | 3.5 | 4.3 | 0.00 | 0.03 | 0.03 | 58 | 1015.4 |
| 20260509145200 | 47 | 28 | 1.7 | 2.6 | 0.00 | 0.03 | 0.03 | 63 | 1015.5 |
| 20260509144656 | 46 | 62 | 0.9 | 1.7 | 0.00 | 0.03 | 0.03 | 64 | 1015.3 |
| 20260509144154 | 46 | 52 | 4.3 | 4.3 | 0.00 | 0.03 | 0.03 | 68 | 1015.2 |
| 20260509143651 | 45 | 315 | 2.6 | 4.3 | 0.00 | 0.03 | 0.03 | 72 | 1015.3 |
| 20260509143149 | 45 | 345 | 5.2 | 7.0 | 0.00 | 0.03 | 0.03 | 75 | 1015.3 |
| 20260509142644 | 45 | 327 | 5.2 | 6.1 | 0.00 | 0.03 | 0.03 | 76 | 1015.2 |
| 20260509142141 | 44 | 14 | 3.5 | 4.3 | 0.00 | 0.03 | 0.03 | 78 | 1015.1 |
| 20260509141636 | 44 | 323 | 2.6 | 2.6 | 0.00 | 0.03 | 0.03 | 76 | 1015.2 |
| 20260509141133 | 44 | 345 | 2.6 | 2.6 | 0.00 | 0.03 | 0.03 | 77 | 1015.0 |
| 20260509140630 | 43 | 11 | 2.6 | 4.3 | 0.00 | 0.03 | 0.03 | 78 | 1015.0 |
| 20260509140128 | 43 | 283 | 0.9 | 0.9 | 0.00 | 0.03 | 0.03 | 83 | 1015.0 |
| 20260509135625 | 43 | 308 | 2.6 | 2.6 | 0.00 | 0.03 | 0.03 | 84 | 1014.9 |
| 20260509135123 | 42 | 16 | 2.6 | 4.3 | 0.00 | 0.03 | 0.03 | 85 | 1014.4 |
| 20260509134619 | 42 | 328 | 1.7 | 1.7 | 0.00 | 0.03 | 0.03 | 86 | 1014.6 |
| 20260509134117 | 42 | 335 | 2.6 | 2.6 | 0.00 | 0.03 | 0.03 | 86 | 1014.6 |
| 20260509133614 | 42 | 342 | 2.6 | 2.6 | 0.00 | 0.03 | 0.03 | 87 | 1014.3 |
| 20260509133111 | 42 | 344 | 2.6 | 2.6 | 0.00 | 0.03 | 0.03 | 87 | 1014.3 |
| 20260509132609 | 41 | 336 | 2.6 | 2.6 | 0.00 | 0.03 | 0.03 | 88 | 1014.2 |
| 20260509132108 | 41 | 312 | 2.6 | 2.6 | 0.00 | 0.03 | 0.03 | 88 | 1014.1 |
| 20260509131603 | 41 | 316 | 2.6 | 2.6 | 0.00 | 0.03 | 0.03 | 88 | 1014.3 |
| 20260509131100 | 40 | 316 | 2.6 | 2.6 | 0.00 | 0.03 | 0.03 | 89 | 1014.2 |
| 20260509130556 | 40 | 310 | 2.6 | 2.6 | 0.00 | 0.03 | 0.03 | 89 | 1013.8 |
| 20260509130053 | 39 | 325 | 2.6 | 2.6 | 0.00 | 0.03 | 0.03 | 89 | 1013.7 |
| 20260509125549 | 39 | 313 | 3.5 | 4.3 | 0.00 | 0.03 | 0.03 | 89 | 1013.6 |
| 20260509125046 | 38 | 313 | 2.6 | 2.6 | 0.00 | 0.03 | 0.03 | 90 | 1013.6 |
| 20260509124542 | 38 | 329 | 1.7 | 1.7 | 0.00 | 0.03 | 0.03 | 90 | 1013.6 |
| 20260509124040 | 37 | 304 | 1.7 | 1.7 | 0.00 | 0.03 | 0.03 | 90 | 1013.5 |
| 20260509123538 | 37 | 289 | 1.7 | 1.7 | 0.00 | 0.03 | 0.03 | 90 | 1013.4 |
| 20260509123034 | 37 | 311 | 1.7 | 1.7 | 0.00 | 0.03 | 0.03 | 90 | 1013.0 |
| 20260509122530 | 36 | 321 | 2.6 | 2.6 | 0.00 | 0.03 | 0.03 | 90 | 1013.3 |
| 20260509122027 | 36 | 327 | 2.6 | 2.6 | 0.00 | 0.03 | 0.03 | 90 | 1012.7 |
| 20260509121524 | 36 | 292 | 1.7 | 1.7 | 0.00 | 0.03 | 0.03 | 90 | 1012.9 |
| 20260509121021 | 36 | 323 | 2.6 | 2.6 | 0.00 | 0.03 | 0.03 | 90 | 1012.9 |
| 20260509120520 | 36 | 309 | 2.6 | 2.6 | 0.00 | 0.03 | 0.03 | 90 | 1012.5 |
| 20260509120017 | 36 | 320 | 2.6 | 2.6 | 0.00 | 0.03 | 0.03 | 90 | 1012.6 |
| 20260509115514 | 36 | 338 | 2.6 | 4.3 | 0.00 | 0.03 | 0.03 | 90 | 1012.3 |
| 20260509115012 | 36 | 338 | 3.5 | 4.3 | 0.00 | 0.03 | 0.03 | 90 | 1012.4 |
| 20260509114510 | 36 | 318 | 4.3 | 6.1 | 0.00 | 0.03 | 0.03 | 91 | 1012.3 |
| 20260509114009 | 36 | 342 | 2.6 | 2.6 | 0.00 | 0.03 | 0.03 | 91 | 1011.9 |
| 20260509113506 | 36 | 313 | 1.7 | 1.7 | 0.00 | 0.03 | 0.03 | 91 | 1011.9 |
| 20260509113004 | 36 | 8 | 2.6 | 2.6 | 0.00 | 0.03 | 0.03 | 91 | 1011.8 |
| 20260509112500 | 36 | 359 | 2.6 | 2.6 | 0.00 | 0.03 | 0.03 | 91 | 1011.9 |
| 20260509111956 | 36 | 8 | 2.6 | 2.6 | 0.00 | 0.03 | 0.03 | 91 | 1011.7 |
| 20260509111454 | 36 | 9 | 3.5 | 4.3 | 0.00 | 0.03 | 0.03 | 91 | 1011.7 |
| 20260509110951 | 36 | 12 | 3.5 | 4.3 | 0.00 | 0.03 | 0.03 | 91 | 1011.6 |
| 20260509110447 | 37 | 8 | 1.7 | 2.6 | 0.00 | 0.03 | 0.03 | 91 | 1011.7 |
| 20260509105945 | 37 | 351 | 2.6 | 2.6 | 0.00 | 0.03 | 0.03 | 90 | 1011.6 |
| 20260509105444 | 37 | 344 | 3.5 | 4.3 | 0.00 | 0.03 | 0.03 | 90 | 1011.3 |
| 20260509104940 | 37 | 5 | 1.7 | 1.7 | 0.00 | 0.03 | 0.03 | 90 | 1011.2 |
| 20260509104437 | 37 | 358 | 2.6 | 4.3 | 0.00 | 0.03 | 0.03 | 90 | 1011.4 |
| 20260509103934 | 38 | 3 | 2.6 | 2.6 | 0.00 | 0.03 | 0.03 | 90 | 1011.3 |
| 20260509103432 | 38 | 8 | 2.6 | 2.6 | 0.00 | 0.03 | 0.03 | 90 | 1011.2 |
| 20260509102930 | 38 | 337 | 2.6 | 2.6 | 0.00 | 0.03 | 0.03 | 90 | 1011.3 |
| 20260509102427 | 38 | 358 | 2.6 | 2.6 | 0.00 | 0.03 | 0.03 | 90 | 1011.2 |
| 20260509101923 | 38 | 19 | 4.3 | 5.2 | 0.00 | 0.03 | 0.03 | 90 | 1011.1 |
| 20260509101420 | 38 | 352 | 3.5 | 4.3 | 0.00 | 0.03 | 0.03 | 90 | 1010.8 |
| 20260509100917 | 38 | 350 | 3.5 | 4.3 | 0.00 | 0.03 | 0.03 | 90 | 1010.9 |
| 20260509100414 | 38 | 13 | 2.6 | 4.3 | 0.00 | 0.03 | 0.03 | 90 | 1010.8 |
| 20260509095911 | 38 | 352 | 2.6 | 4.3 | 0.00 | 0.03 | 0.03 | 90 | 1010.9 |
| 20260509095408 | 38 | 349 | 3.5 | 5.2 | 0.00 | 0.03 | 0.03 | 90 | 1010.9 |
| 20260509094905 | 38 | 357 | 3.5 | 4.3 | 0.00 | 0.03 | 0.03 | 90 | 1010.7 |
| 20260509094401 | 39 | 21 | 4.3 | 5.2 | 0.00 | 0.03 | 0.03 | 90 | 1010.5 |
| 20260509093859 | 39 | 3 | 3.5 | 4.3 | 0.00 | 0.03 | 0.03 | 90 | 1010.7 |
| 20260509093356 | 39 | 358 | 5.2 | 6.1 | 0.00 | 0.03 | 0.03 | 90 | 1010.5 |